Orbital Elements at Epoch 2459000.5 (2020-May-31.0) TDB
Reference: JPL 25 (heliocentric ecliptic J2000)
Element | Value | Uncertainty (1-sigma) | Units |
e | .1620860823276817 | 3.8568e-08 | |
a | 2.241128329371211 | 8.6603e-09 | au |
q | 1.877872618469849 | 8.5791e-08 | au |
i | 4.770532302353052 | 4.6129e-06 | deg |
node | 17.15838978786426 | 5.2982e-05 | deg |
peri | 9.902289169728927 | 5.5667e-05 | deg |
M | 109.6740628146644 | 1.707e-05 | deg |
tp | 2458627.163934550841 (2019-May-23.66393455) | 5.7335e-05 | TDB |
period | 1225.458236090133 3.36 | 7.1033e-06 1.945e-08 | d yr |
n | .2937676612697894 | 1.7028e-09 | deg/d |
Q | 2.604384040272573 | 1.0064e-08 | au |
|
| | Orbit Determination Parameters
Additional Information
|